This is the latest recevied weather packets stored in our database for station/object N3FAA. If no packets are shown the sender has not sent any weather packets the latest 10 day(s).
| Time | Temp. | Humidity | Pressure | Rain* | Wind** | Luminosity | Snow |
|---|---|---|---|---|---|---|---|
| 1778178961 | 30° C | 22% | 1013.7 hPa | 0 mm | - | 946 W/m² | - |
| 1778178658 | 30.56° C | 21% | 1013.9 hPa | 0 mm | - | 976 W/m² | - |
| 1778178354 | 30° C | 22% | 1013.9 hPa | 0 mm | - | 986 W/m² | - |
| 1778178050 | 29.44° C | 23% | 1013.8 hPa | 0 mm | - | 985 W/m² | - |
| 1778177748 | 29.44° C | 22% | 1014 hPa | 0 mm | - | 1001 W/m² | - |
| 1778177444 | 29.44° C | 23% | 1014 hPa | 0 mm | - | 1015 W/m² | - |
| 1778177140 | 28.89° C | 21% | 1014.3 hPa | 0 mm | - | 1009 W/m² | - |
| 1778176837 | 28.33° C | 23% | 1014 hPa | 0 mm | - | 957 W/m² | - |
| 1778176533 | 28.33° C | 24% | 1014.1 hPa | 0 mm | - | 967 W/m² | - |
| 1778176231 | 27.78° C | 24% | 1014.1 hPa | 0 mm | - | 1043 W/m² | - |
| 1778175928 | 27.78° C | 24% | 1014.3 hPa | 0 mm | - | 1007 W/m² | - |
| 1778175626 | 27.22° C | 25% | 1014.3 hPa | 0 mm | - | 940 W/m² | - |
| 1778175322 | 27.78° C | 26% | 1014.5 hPa | 0 mm | - | 908 W/m² | - |
| 1778175020 | 27.78° C | 27% | 1014.1 hPa | 0 mm | - | 842 W/m² | - |
| 1778174715 | 26.67° C | 28% | 1014.3 hPa | 0 mm | - | 829 W/m² | - |
| 1778174412 | 26.67° C | 29% | 1014.4 hPa | 0 mm | - | 834 W/m² | - |
| 1778174108 | 26.11° C | 28% | 1014.5 hPa | 0 mm | - | 829 W/m² | - |
| 1778173806 | 26.11° C | 30% | 1014.4 hPa | 0 mm | - | 812 W/m² | - |
| 1778173502 | 26.11° C | 31% | 1014.5 hPa | 0 mm | - | 784 W/m² | - |
| 1778173198 | 25.56° C | 31% | 1014.6 hPa | 0 mm | - | 743 W/m² | - |
| 1778172894 | 25° C | 32% | 1014.3 hPa | 0 mm | - | 765 W/m² | - |
| 1778172591 | 25° C | 33% | 1014.5 hPa | 0 mm | - | 790 W/m² | - |
| 1778172288 | 24.44° C | 33% | 1014.5 hPa | 0 mm | - | 766 W/m² | - |
| 1778171984 | 24.44° C | 34% | 1014.7 hPa | 0 mm | - | 753 W/m² | - |
| 1778171682 | 24.44° C | 34% | 1014.8 hPa | 0 mm | - | 731 W/m² | - |
* Rain latest hour (hover to see other rain measurements)
** Current wind speed in m/s (hover to see current wind gust speed)